Location: Newark
(48.3747°N, 2.1544°E)
Time: 10:27:18
(UTC+00:00)

ISS - Visible Passes

Search period start: 28 January 2020 00:00
Search period end: 07 February 2020 00:00
Orbit: 416 x 423 km, 51.6° (Epoch: 28 January)

Date Brightness Start Highest point End Pass type
(mag) Time Alt. Az. Time Alt. Az. Time Alt. Az.
28 Jan -3.6 17:27:11 10° WSW 17:30:34 69° NNW 17:33:40 12° ENE visible
28 Jan -2.3 19:04:22 10° WNW 19:06:37 34° NW 19:06:37 34° NW visible
29 Jan -3.2 18:16:42 10° WNW 18:20:00 46° N 18:21:00 34° NE visible
29 Jan -0.3 19:53:42 10° WNW 19:53:58 12° WNW 19:53:58 12° WNW visible
30 Jan -3.2 17:29:01 10° W 17:32:20 49° N 17:35:24 12° ENE visible
30 Jan -2.4 19:06:07 10° WNW 19:08:21 36° NW 19:08:21 36° NW visible
31 Jan -3.3 18:18:29 10° WNW 18:21:48 50° N 18:22:46 36° ENE visible
31 Jan -0.4 19:55:21 10° WNW 19:55:44 13° WNW 19:55:44 13° WNW visible
01 Feb -3.2 17:30:49 10° WNW 17:34:07 46° N 17:37:12 11° ENE visible
01 Feb -2.7 19:07:44 10° WNW 19:10:10 44° WNW 19:10:10 44° WNW visible
02 Feb -3.8 18:20:07 10° WNW 18:23:31 71° NNE 18:24:40 37° E visible
02 Feb -0.4 19:57:09 10° W 19:57:38 13° W 19:57:38 13° W visible
03 Feb -3.5 17:32:29 10° WNW 17:35:50 57° NNE 17:39:11 10° E visible
03 Feb -2.6 19:09:23 10° WNW 19:12:13 41° SW 19:12:13 41° SW visible
04 Feb -3.4 18:21:41 10° WNW 18:25:03 64° SSW 18:26:53 24° SE visible
04 Feb -0.3 19:59:41 10° WSW 19:59:52 11° WSW 19:59:52 11° WSW visible
05 Feb -3.7 17:34:01 10° WNW 17:37:25 89° SSW 17:40:49 10° ESE visible
05 Feb -1.5 19:11:21 10° W 19:13:52 20° SW 19:14:40 18° SSW visible
06 Feb -1.9 18:23:23 10° W 18:26:23 29° SW 18:29:21 10° SSE visible
